Flag for South Africa Weather past 2 weeks in Pretoria, South Africa

Now
45 °F

Quite cool.


Feels Like: 42 °F
Forecast: 40 / 72 °F
Wind: 5 mph from South

Location: Waterkloof Lmb

Current Time: Sep 2, 2014 at 3:52:12 AM

Latest Report: Sep 2, 2014 at 3:00 AM


Visibility: N/A

Pressure: 30.39 "Hg

Humidity: 66%

Dew point: 34 °F

Location of PretoriaLocation

Historic Weather in Pretoria — Graph

°F

Pretoria temperature yesterday

Maximum temperature yesterday: 72 °F (at 3:00 PM)
Minimum temperature yesterday: 39 °F (at 6:00 AM)
Average temperature yesterday: 55 °F

Past Weeks' High & Low Weather Summary

 TemperatureHumidityPressure
High81 °F (Aug 28, 2:00 PM)83% (Aug 31, 12:00 PM)30.51 "Hg (Aug 31, 12:00 PM)
Low36 °F (Aug 23, 6:00 AM)9% (Aug 26, 3:00 PM)29.95 "Hg (Aug 28, 3:00 PM)
Average58 °F32%30.23 "Hg
* Reported Aug 19 3:00 PM — Sep 2 2:00 AM, Pretoria, Weather by CustomWeather, © 2014

Note: Actual official high and low records may vary slightly from our data, if they occured in-between our weather recording intervals... More about our weather records

Advertising

Pretoria weather history for previous 24 hours

 ConditionsComfort  
Time TempWeatherWind HumidityBarometerVisibility
2:00 AM
Sep 2
52 °FCool.8 mph50%30.39 "HgN/A
1:00 AM54 °FCool.5 mph44%30.42 "HgN/A
12:00 AM55 °FRefreshingly cool.8 mph38%30.42 "HgN/A
11:00 PM
Sep 1
57 °FRefreshingly cool.9 mph39%30.42 "HgN/A
10:00 PM55 °FRefreshingly cool.9 mph31%30.42 "HgN/A
9:00 PM54 °FCool.6 mph33%30.39 "HgN/A
8:00 PM59 °FRefreshingly cool.6 mph25%30.39 "HgN/A
7:00 PM61 °FRefreshingly cool.5 mph27%30.39 "HgN/A
6:00 PM64 °FMild.5 mph22%30.39 "HgN/A
5:00 PM72 °FMild.2 mph17%30.36 "HgN/A
4:00 PM72 °FMild.5 mph17%30.36 "HgN/A
3:00 PM72 °FMild.5 mph17%30.36 "HgN/A
6:00 AM39 °FChilly.3 mph70%30.45 "HgN/A
5:00 AM41 °FQuite cool.2 mph70%30.42 "HgN/A
4:00 AM45 °FQuite cool.2 mph57%30.42 "HgN/A
3:00 AM43 °FQuite cool.2 mph61%30.42 "HgN/A
Weather by CustomWeather, © 2014

See weather overviewHow to use our weather pages